Home > Weather > Aliso Viejo > Past weeks

Flag for USA Past Weather in Aliso Viejo, California, USA — Yesterday and Last 2 Weeks

Now
64 °F

Passing clouds.


Feels Like: 64 °F
Forecast: 62 / 80 °F
Wind: 6 mph from South

Location: John Wayne Airport-Orange County Airport

Current Time: Jun 25, 2016 at 12:09:11 AM

Latest Report: Jun 24, 2016 at 10:53 PM


Visibility: 8 mi

Pressure: 29.89 "Hg

Humidity: 81%

Dew Point: 58 °F

Location of Aliso ViejoLocation

Past Weather in Aliso Viejo — Graph

°F

Aliso Viejo Temperature Yesterday

Maximum temperature yesterday: 72 °F (at 12:53 PM)
Minimum temperature yesterday: 64 °F (at 9:53 PM)
Average temperature yesterday: 68 °F

High & Low Weather Summary for the Past Weeks

 TemperatureHumidityPressure
High95 °F (Jun 20, 2:53 PM)97% (Jun 22, 3:53 AM)30.13 "Hg (Jun 22, 3:53 AM)
Low59 °F (Jun 16, 4:53 AM)23% (Jun 19, 10:53 AM)29.81 "Hg (Jun 19, 5:53 PM)
Average69 °F67%29.95 "Hg
* Reported Jun 9 10:53 PM — Jun 24 10:53 PM, Aliso Viejo, Weather by CustomWeather, © 2016

Note: Actual official high and low records may vary slightly from our data, if they occured in-between our weather recording intervals... More about our weather records

Advertising

Aliso Viejo Weather History for the Previous 24 Hours

Scroll right to see more
 ConditionsComfort  
Time TempWeatherWind HumidityBarometerVisibility
10:53 PM
Fri, Jun 24
64 °FPassing clouds.6 mph81%29.89 "Hg8 mi
9:53 PM64 °FPassing clouds.7 mph81%29.89 "Hg8 mi
8:53 PM65 °FPassing clouds.7 mph81%29.88 "Hg8 mi
7:53 PM65 °FPassing clouds.9 mph78%29.87 "Hg9 mi
6:53 PM68 °FPassing clouds.12 mph70%29.87 "Hg10 mi
5:53 PM68 °FPassing clouds.13 mph73%29.88 "Hg10 mi
4:53 PM69 °FPassing clouds.13 mph70%29.89 "Hg10 mi
3:53 PM71 °FPassing clouds.14 mph66%29.90 "Hg10 mi
2:53 PM71 °FPassing clouds.12 mph66%29.91 "Hg10 mi
1:53 PM72 °FPassing clouds.15 mph66%29.93 "Hg9 mi
12:53 PM72 °FPassing clouds.13 mph66%29.93 "Hg10 mi
11:53 AM71 °FScattered clouds.10 mph68%29.95 "Hg9 mi
10:53 AM70 °FBroken clouds.10 mph71%29.95 "Hg9 mi
9:53 AM70 °FBroken clouds.12 mph73%29.95 "Hg10 mi
8:53 AM69 °FPartly sunny.9 mph73%29.95 "Hg9 mi
7:53 AM68 °FPartly sunny.5 mph73%29.94 "Hg7 mi
6:53 AM66 °FPartly sunny.No wind78%29.93 "Hg7 mi
5:53 AM66 °FOvercast.5 mph78%29.93 "Hg8 mi
4:53 AM66 °FOvercast.No wind81%29.92 "Hg10 mi
3:53 AM66 °FOvercast.5 mph81%29.92 "Hg10 mi
2:53 AM66 °FOvercast.5 mph81%29.93 "Hg10 mi
1:53 AM66 °FOvercast.5 mph84%29.93 "Hg10 mi
12:53 AM66 °FOvercast.6 mph84%29.94 "Hg10 mi
Weather by CustomWeather, © 2016

See weather overviewHow to use our weather pages